This demonstration page uses our WeatherBlox Daily Observations layout. Learn more.

36.19886, -115.1175

Hourly Observations for July 9, 2019

Temp ( °F °C ) Dew Point ( °F °C ) Humidity (%) Winds ( mph kmh ) Pressure ( in mb ) Visibility ( mi km ) Precip ( " mm )
12:53 am 00:53 Clear 85 29.4 36 2.2 17 17 SSW 7 11 29.8 1009 10 16.09344 0 0
1:53 am 01:53 Clear 83 28.3 36 2.2 19 19 S 9 15 29.83 1010 10 16.09344 0 0
2:53 am 02:53 Clear 82 27.8 35 1.7 18 18 Calm 29.83 1010 10 16.09344 0 0
3:53 am 03:53 Clear 80 26.7 37 2.8 21 21 Calm 29.83 1010 10 16.09344 0 0
4:53 am 04:53 Clear 76 24.4 36 2.2 23 23 Calm 29.88 1012 10 16.09344 0 0
5:53 am 05:53 Sunny 76 24.4 38 3.3 25 25 Calm 29.88 1012 10 16.09344 0 0
6:53 am 06:53 Sunny 77 25 41 5 28 28 N 3 6 29.91 1013 10 16.09344 0 0
7:53 am 07:53 Sunny 82 27.8 40 4.4 22 22 S 6 9 29.94 1014 10 16.09344 0 0
8:53 am 08:53 Sunny 86 30 39 3.9 19 19 SE 6 9 29.94 1014 10 16.09344 0 0
9:53 am 09:53 Sunny 88 31.1 38 3.3 17 17 SE 8 13 29.94 1014 10 16.09344 0 0
10:53 am 10:53 Sunny 91 32.8 38 3.3 15 15 S 9 15 29.94 1014 10 16.09344 0 0
11:53 am 11:53 Sunny 93 33.9 36 2.2 13 13 VRB 5 7 29.94 1014 10 16.09344 0 0
12:53 pm 12:53 Sunny 95 35 36 2.2 13 13 undefined N/A 29.91 1013 10 16.09344 0 0
1:53 pm 13:53 Sunny 97 36.1 36 2.2 12 12 undefined N/A 29.88 1012 10 16.09344 0 0
2:53 pm 14:53 Sunny 98 36.7 34 1.1 11 11 NNE 3 6 29.88 1012 10 16.09344 0 0
3:53 pm 15:53 Sunny 100 37.8 33 0.6 10 10 E 13 20 29.85 1011 10 16.09344 0 0
4:53 pm 16:53 Sunny 101 38.3 32 0 9 9 ESE 13 20 29.85 1011 10 16.09344 0 0
5:53 pm 17:53 Sunny 100 37.8 32 0 9 9 SE 20 31 29.83 1010 10 16.09344 0 0
6:53 pm 18:53 Sunny 98 36.7 31 -0.6 9 9 SE 18 30 29.83 1010 10 16.09344 0 0
7:53 pm 19:53 Sunny 96 35.6 30 -1.1 10 10 ESE 14 22 29.83 1010 10 16.09344 0 0
8:53 pm 20:53 Clear 94 34.4 31 -0.6 11 11 S 6 9 29.85 1011 10 16.09344 0 0
9:53 pm 21:53 Clear 91 32.8 32 0 12 12 S 8 13 29.88 1012 10 16.09344 0 0
10:53 pm 22:53 Clear 90 32.2 32 0 13 13 S 8 13 29.88 1012 10 16.09344 0 0
11:53 pm 23:53 Clear 88 31.1 32 0 13 13 S 9 15 29.91 1013 10 16.09344 0 0

Powered by AerisWeather